Home > Weather > Vejle > Past weeks

Flag for Denmark Past Weather in Vejle, Denmark — Yesterday and Last 2 Weeks

Now
68 °F

Broken clouds.


Feels Like: 68 °F
Forecast: 56 / 68 °F
Wind: 9 mph from South

Location: Billund Lufthavn

Current Time: Jul 27, 2016 at 11:56:30 AM

Latest Report: Jul 27, 2016 at 11:20 AM


Visibility: N/A

Pressure: 30.01 "Hg

Humidity: 64%

Dew Point: 55 °F

Location of VejleLocation

Past Weather in Vejle — Graph

°F

Vejle Temperature Yesterday

Maximum temperature yesterday: 68 °F (at 11:20 AM)
Minimum temperature yesterday: 54 °F (at 11:50 PM)
Average temperature yesterday: 63 °F

High & Low Weather Summary for the Past Weeks

 TemperatureHumidityPressure
High81 °F (Jul 23, 2:50 PM)100% (Jul 14, 8:04 AM)30.15 "Hg (Jul 14, 8:04 AM)
Low50 °F (Jul 13, 3:20 AM)32% (Jul 24, 1:20 PM)29.71 "Hg (Jul 12, 10:20 AM)
Average63 °F78%30.03 "Hg
* Reported Jul 12 10:20 AM — Jul 27 10:20 AM, Vejle, Weather by CustomWeather, © 2016

Note: Actual official high and low records may vary slightly from our data, if they occured in-between our weather recording intervals... More about our weather records

Advertising

Vejle Weather History for the Previous 24 Hours

Scroll right to see more
 ConditionsComfort  
Time TempWeatherWind HumidityBarometerVisibility
10:20 AM
Wed, Jul 27
66 °FOvercast.8 mph68%30.01 "HgN/A
9:50 AM64 °FPartly sunny.6 mph78%30.01 "HgN/A
9:20 AM63 °FPartly sunny.7 mph83%30.01 "HgN/A
8:50 AM61 °FOvercast.6 mph83%30.04 "HgN/A
8:20 AM59 °FOvercast.5 mph88%30.04 "HgN/A
7:50 AM57 °FPartly sunny.5 mph88%30.04 "HgN/A
7:20 AM55 °FCool.5 mph94%30.04 "HgN/A
6:50 AM54 °FClear.5 mph100%30.04 "HgN/A
6:20 AM52 °FFog.5 mph100%30.04 "HgN/A
5:50 AM50 °FFog.3 mph100%30.04 "HgN/A
5:20 AM50 °FFog.3 mph94%30.04 "HgN/A
4:53 AM50 °FFog.2 mph100%30.07 "HgN/A
4:20 AM52 °FCool.3 mph100%30.07 "Hg6 mi
3:50 AM50 °FCool.2 mph94%30.07 "Hg3 mi
3:20 AM50 °FFog.2 mph94%30.09 "HgN/A
2:50 AM52 °FFog.2 mph94%30.09 "HgN/A
2:20 AM52 °FFog.3 mph100%30.09 "HgN/A
1:50 AM50 °FFog.2 mph94%30.09 "HgN/A
1:20 AM50 °FFog.2 mph100%30.09 "HgN/A
12:51 AM52 °FFog.1 mph94%30.09 "HgN/A
12:20 AM50 °FCool.2 mph94%30.09 "HgN/A
11:50 PM
Tue, Jul 26
54 °FFog.1 mph88%30.09 "Hg1 mi
11:20 PM59 °FCool.1 mph82%30.09 "Hg5 mi
10:50 PM61 °FCool.2 mph77%30.12 "HgN/A
10:20 PM61 °FCool.5 mph77%30.09 "Hg4 mi
9:50 PM63 °FMild.5 mph73%30.09 "HgN/A
9:20 PM63 °FPassing clouds.7 mph73%30.09 "HgN/A
8:50 PM63 °FPassing clouds.9 mph73%30.09 "HgN/A
8:20 PM64 °FScattered clouds.9 mph68%30.09 "HgN/A
7:50 PM64 °FScattered clouds.10 mph68%30.09 "HgN/A
7:20 PM66 °FPassing clouds.10 mph64%30.09 "HgN/A
6:50 PM66 °FScattered clouds.10 mph60%30.09 "HgN/A
6:20 PM68 °FScattered clouds.10 mph56%30.09 "HgN/A
5:50 PM68 °FScattered clouds.13 mph56%30.09 "HgN/A
5:20 PM68 °FPartly sunny.10 mph56%30.09 "HgN/A
4:50 PM68 °FPartly sunny.13 mph56%30.09 "HgN/A
4:20 PM66 °FScattered clouds.14 mph60%30.09 "HgN/A
3:50 PM66 °FScattered clouds.14 mph60%30.09 "HgN/A
3:20 PM68 °FScattered clouds.13 mph56%30.09 "HgN/A
2:50 PM68 °FPartly sunny.10 mph56%30.09 "HgN/A
2:20 PM66 °FPartly sunny.8 mph64%30.09 "HgN/A
1:50 PM66 °FScattered clouds.13 mph60%30.09 "HgN/A
1:20 PM66 °FBroken clouds.12 mph60%30.09 "HgN/A
12:50 PM68 °FPartly sunny.9 mph60%30.09 "HgN/A
12:20 PM68 °FBroken clouds.10 mph60%30.09 "HgN/A
11:50 AM63 °FPartly sunny.12 mph73%30.09 "HgN/A
11:20 AM68 °FScattered clouds.13 mph64%30.07 "HgN/A
Weather by CustomWeather, © 2016

See weather overviewHow to use our weather pages